Location: Melbourne
(37.8666°S, 145.1333°E)
Time: 19:29:31
(UTC+10:00)

Daily predictions for brighter satellites

Satellite Brightness Start Highest point End
(mag) Time Altitude Azimuth Time Altitude Azimuth Time Altitude Azimuth
Cosmos 1092 Rocket 4.3 17:33:47 10° S 17:39:55 46° ESE 17:45:54 10° NNE
USA 215 4.2 17:34:16 10° ESE 17:40:05 32° NE 17:45:49 10° N
Lacrosse 5 3.4 17:39:17 10° NNE 17:42:54 20° ENE 17:46:32 10° ESE
IRS-1A Rocket 4.5 17:40:35 10° SSE 17:46:32 65° ENE 17:52:19 10° N
Cosmos 2034 Rocket 4.4 17:40:44 10° NNW 17:46:53 70° W 17:53:10 10° S
Helios 1B rocket 2.6 17:43:26 10° NNE 17:47:30 52° ESE 17:51:36 10° S
Cosmos 1818 4.2 17:43:44 10° N 17:48:40 38° ENE 17:53:36 10° SE
IDEFIX/ARIANE 42P 4.2 17:48:23 10° ESE 17:51:15 15° E 17:54:06 10° NE
Cosmos-2242 4.2 17:51:31 10° NE 17:54:51 22° E 17:58:13 10° SE
Cosmos 968 Rocket 3.9 17:51:09 10° SSW 17:56:17 67° WNW 18:01:23 10° N
CSL-04 Debris 4.3 17:51:28 10° SSE 17:57:05 89° ENE 18:02:35 10° NNW
CZ-2C R/B 3.7 17:55:10 10° SE 17:58:40 19° E 18:02:04 10° NE
Cosmos 1076 Rocket 3.9 17:57:50 10° S 18:01:53 39° ESE 18:05:54 10° NNE
Cosmos 1805 4.4 18:06:30 10° NE 18:09:38 23° E 18:11:46 15° SE
SPOT 3 Rocket 3.6 18:05:52 10° SSE 18:11:06 65° ENE 18:16:16 10° N
Cosmos 2219 3.2 18:06:17 10° SSW 18:12:01 66° ESE 18:17:43 10° NNE
Cosmos 1408 Rocket 3.7 18:08:04 10° S 18:12:32 52° E 18:16:54 10° NNE
Cosmos 1378 3.4 18:12:21 10° S 18:16:06 47° E 18:19:47 10° NNE
Cosmos 405 Rocket 2.9 18:13:08 10° SSW 18:16:59 73° W 18:20:42 10° N
Cosmos 1758 4.0 18:13:38 10° NNE 18:17:14 33° E 18:20:07 14° SSE
Genesis I 3.2 18:14:32 10° NW 18:18:21 78° WSW 18:21:38 14° SSE
SJ-12 4.4 18:15:05 10° SSE 18:19:05 39° E 18:23:01 10° NNE
Abrixas rocket 3.6 18:15:59 10° WSW 18:19:18 42° NW 18:22:35 10° NNE
Cosmos 1656 Rocket 3.7 18:15:27 10° NNW 18:20:52 78° WSW 18:26:22 10° SSE
ATLAS 5 CENTAUR R/B 3.7 18:08:26 10° NNW 18:22:17 43° NE 18:25:16 21° ESE
NOSS 3-1 (A) 4.2 18:16:48 10° SW 18:22:56 53° WNW 18:28:33 10° NNE
Meteor 1-28 Rocket 3.1 18:20:08 10° NNE 18:23:57 82° ESE 18:27:51 10° S
ISS -2.6 18:21:43 10° NNW 18:24:50 39° NE 18:25:59 28° E
Lacrosse 5 rocket 2.5 18:22:37 10° N 18:26:40 31° ENE 18:28:28 23° E
Meteor 1-22 Rocket 4.5 18:21:41 10° NNW 18:27:31 74° W 18:33:11 10° S
YAOGAN 1 2.5 18:27:23 10° SSE 18:31:49 76° ENE 18:36:10 10° N
USA 81 4.1 18:27:12 10° N 18:32:29 89° W 18:37:52 10° S
Cosmos 1766 3.7 18:29:54 10° NNW 18:33:47 64° W 18:37:44 10° S
Meteor 1-29 4.1 18:30:37 10° N 18:33:55 46° W 18:37:17 10° SSW
Cosmos 2278 4.2 18:30:01 10° N 18:35:15 38° ENE 18:37:59 24° SE
MOS 1 4.4 18:30:33 10° SSE 18:36:20 82° WSW 18:42:04 10° NNW
Cosmos 2279 Rocket 3.9 18:33:04 10° N 18:39:13 65° E 18:45:25 10° SSE
Cosmos 1953 2.3 18:37:21 10° N 18:41:27 72° E 18:44:44 16° SSE
Cosmos 1655 Rocket 3.9 18:36:04 10° S 18:42:27 75° E 18:48:42 10° NNE
ATLAS 2AS CENTAUR R/B 2.4 18:37:24 10° SSW 18:43:32 77° ESE 18:50:03 10° NE
SMAP 3.0 18:40:47 10° SSE 18:45:32 88° ENE 18:50:13 10° NNW
CZ-4 R/B 2.4 18:41:59 10° S 18:45:51 45° WSW 18:49:37 10° NNW
Cosmos 1937 Rocket 4.3 18:44:19 10° S 18:48:36 31° SE 18:48:36 31° SE
Cosmos 1428 Rocket 4.4 18:46:43 10° S 18:52:54 61° E 18:59:03 10° NNE
Cosmos 2227 Rocket 2.6 18:47:38 10° S 18:52:55 38° ESE 18:53:43 36° E
Cosmos 2084 Rocket 4.5 18:55:21 10° SSW 18:58:56 34° SSE 18:58:56 34° SSE
PAYLOAD A 4.4 18:54:38 10° S 19:00:03 68° WSW 19:05:16 10° NNW
PSLV R/B 3.7 18:58:38 10° WSW 19:01:39 55° SSW 19:01:39 55° SSW
Atlas Centaur 2 2.7 19:01:31 10° WNW 19:04:50 28° N 19:05:38 26° NNE
ATLAS 3B CENTAUR R/B 3.3 19:05:27 10° NNW 19:05:29 10° N 19:05:29 10° N
Cosmos 2298 Rocket 3.9 19:01:48 10° SSW 19:07:13 76° ESE 19:12:34 10° NNE
Cosmos 1743 Rocket 3.6 19:03:11 10° S 19:07:44 81° W 19:12:14 10° N
Cosmos 1814 Rocket 3.9 19:03:19 10° N 19:08:33 69° ENE 19:09:48 50° SE
Cosmos 1697 Rocket 4.4 19:05:35 10° NNE 19:07:07 16° NE 19:07:07 16° NE
Milstar 3 Cent rocket 4.2 18:58:01 10° NW 19:11:03 36° N 19:15:08 24° NE
Meteor 2-20 4.4 19:05:53 10° S 19:12:03 60° E 19:18:10 10° NNE
Cosmos 2266 Rocket 4.2 19:05:49 10° S 19:12:05 48° ESE 19:18:14 10° NNE
Cosmos 1500 Rocket 3.9 19:07:49 10° S 19:13:18 50° NNE 19:16:35 10° N
Cosmos 1544 4.1 19:08:47 10° N 19:11:06 37° N 19:11:06 37° N
Cosmos 44 Rocket 4.5 19:11:31 10° SSW 19:14:00 28° S 19:14:00 28° S
Cosmos 2297 Rocket 3.2 19:13:54 10° S 19:17:15 31° SSE 19:17:15 31° SSE
NOSS 2-3 (E) 4.0 19:14:23 10° SSW 19:20:44 75° SE 19:21:37 62° ENE
USA 215 3.5 19:20:17 34° SSE 19:23:17 66° SW 19:29:48 10° WNW
Lacrosse 5 2.2 19:20:23 10° NW 19:25:25 61° SW 19:26:11 54° S
IDEFIX/ARIANE 42P 3.0 19:28:11 25° S 19:31:15 62° WSW 19:36:27 10° NNW
CZ-2C R/B 3.5 19:33:51 18° S 19:37:06 42° WSW 19:41:36 10° NW
Cosmos 1898 Rocket 3.8 19:32:34 10° SSW 19:37:47 65° WNW 19:41:43 17° N
NOSS 2-3 (C) 4.3 19:41:56 10° SW 19:48:06 68° WNW 19:48:12 68° NW
ISS 0.3 19:58:37 10° W 19:58:38 10° W 19:58:38 10° W
Cosmos 2082 4.4 19:59:42 10° SSW 20:04:20 50° WSW 20:04:20 50° WSW
Lacrosse 5 rocket 3.5 20:01:35 10° WNW 20:04:15 28° W 20:04:15 28° W
ATLAS CENTAUR R/B 4.1 19:57:28 10° NW 20:20:05 73° SW 20:21:42 62° S
Cosmos 2227 Rocket 4.1 20:32:02 10° SW 20:35:42 26° W 20:35:42 26° W
